CPA513 RJFF-VHHH

Flight info

Callsign CPA513
Flight time N/A
Altitude 34000
Route YAMGA VEMRA Y506 HKC A1 ELATO V522 ABBEY
Aircraft B772/H-SDE2E3FGHIJ5LORVWXY/LB1D1

Departure

Time 2026-05-08 05:22
Airport Fukuoka Airport (RJFF)

Arrival

Time N/A
Airport Hong Kong International Airport (VHHH)
Time Latitude Longitude Altitude Speed Heading
2026-05-08 04:56 33.58569 130.44516 35 ft 0 kts 240°
2026-05-08 05:11 33.58571 130.44521 35 ft 3 kts 240°
2026-05-08 05:11 33.58584 130.44549 34 ft 4 kts 240°
2026-05-08 05:12 33.58598 130.44577 35 ft 4 kts 240°
2026-05-08 05:12 33.58607 130.44596 35 ft 3 kts 240°
2026-05-08 05:12 33.58614 130.44611 33 ft 4 kts 233°
2026-05-08 05:12 33.58633 130.44630 35 ft 4 kts 191°
2026-05-08 05:13 33.58657 130.44627 35 ft 4 kts 153°
2026-05-08 05:13 33.58670 130.44619 36 ft 1 kts 150°
2026-05-08 05:17 33.58655 130.44629 34 ft 6 kts 150°
2026-05-08 05:17 33.58603 130.44664 36 ft 11 kts 150°
2026-05-08 05:17 33.58523 130.44718 37 ft 16 kts 150°
2026-05-08 05:17 33.58415 130.44791 38 ft 20 kts 150°
2026-05-08 05:18 33.58284 130.44882 38 ft 22 kts 150°
2026-05-08 05:18 33.58139 130.44981 39 ft 25 kts 150°
2026-05-08 05:18 33.57998 130.45077 40 ft 14 kts 150°
2026-05-08 05:18 33.57903 130.45142 41 ft 17 kts 150°
2026-05-08 05:19 33.57786 130.45223 41 ft 21 kts 150°
2026-05-08 05:19 33.57659 130.45309 45 ft 21 kts 150°
2026-05-08 05:19 33.57527 130.45398 45 ft 23 kts 150°
2026-05-08 05:19 33.57413 130.45476 45 ft 9 kts 148°
2026-05-08 05:20 33.57385 130.45544 44 ft 9 kts 101°
2026-05-08 05:20 33.57411 130.45614 46 ft 9 kts 59°
2026-05-08 05:20 33.57444 130.45683 46 ft 9 kts 60°
2026-05-08 05:20 33.57477 130.45751 48 ft 9 kts 60°
2026-05-08 05:21 33.57525 130.45795 49 ft 9 kts 351°
2026-05-08 05:21 33.57571 130.45764 48 ft 3 kts 329°
2026-05-08 05:21 33.57690 130.45682 47 ft 56 kts 330°
2026-05-08 05:22 33.58252 130.45300 39 ft 128 kts 329°
2026-05-08 05:22 33.59159 130.44695 359 ft 160 kts 328°
2026-05-08 05:22 33.60152 130.44097 1238 ft 158 kts 328°
2026-05-08 05:22 33.61105 130.43376 1986 ft 167 kts 324°
2026-05-08 05:23 33.62155 130.42562 2234 ft 192 kts 326°
2026-05-08 05:23 33.63352 130.41678 2583 ft 208 kts 326°
2026-05-08 05:23 33.64679 130.40965 3004 ft 219 kts 352°
2026-05-08 05:23 33.66175 130.41397 3618 ft 235 kts 27°
2026-05-08 05:24 33.67315 130.42924 4055 ft 256 kts 55°
2026-05-08 05:24 33.68203 130.44836 4638 ft 265 kts 56°
2026-05-08 05:24 33.68985 130.46864 5198 ft 278 kts 73°
2026-05-08 05:24 33.68904 130.49237 5777 ft 296 kts 108°
2026-05-08 05:25 33.67770 130.51285 6509 ft 298 kts 142°
2026-05-08 05:25 33.66022 130.52556 7063 ft 296 kts 156°
2026-05-08 05:25 33.64172 130.53708 7620 ft 303 kts 156°
2026-05-08 05:25 33.62251 130.54771 8313 ft 305 kts 162°
2026-05-08 05:26 33.60287 130.55734 9031 ft 308 kts 163°
2026-05-08 05:26 33.58284 130.56696 9710 ft 312 kts 163°
2026-05-08 05:26 33.56256 130.57680 10023 ft 317 kts 163°
2026-05-08 05:26 33.54210 130.58687 9996 ft 317 kts 163°
2026-05-08 05:27 33.52185 130.59695 9987 ft 315 kts 163°
2026-05-08 05:27 33.50152 130.60712 10152 ft 320 kts 162°
2026-05-08 05:27 33.48029 130.61770 10322 ft 342 kts 162°
2026-05-08 05:27 33.45753 130.62904 10521 ft 366 kts 162°
2026-05-08 05:28 33.43338 130.64099 10935 ft 382 kts 164°
2026-05-08 05:28 33.40794 130.65083 11639 ft 387 kts 170°
2026-05-08 05:28 33.38172 130.65898 12604 ft 390 kts 172°
2026-05-08 05:28 33.35540 130.66701 13691 ft 392 kts 172°
2026-05-08 05:29 33.32914 130.67544 14578 ft 398 kts 172°
2026-05-08 05:29 33.30229 130.68438 15433 ft 404 kts 172°
2026-05-08 05:29 33.27498 130.69360 16304 ft 410 kts 172°
2026-05-08 05:29 33.24739 130.70291 17193 ft 415 kts 173°
2026-05-08 05:30 33.21943 130.71235 18089 ft 421 kts 173°
2026-05-08 05:30 33.19105 130.72197 18906 ft 426 kts 173°
2026-05-08 05:30 33.16253 130.73162 19791 ft 427 kts 174°
2026-05-08 05:30 33.13382 130.74128 20690 ft 429 kts 174°
2026-05-08 05:31 33.10507 130.75033 21460 ft 423 kts 180°
2026-05-08 05:31 33.07656 130.75113 22108 ft 399 kts 198°
2026-05-08 05:31 33.04896 130.74647 22818 ft 402 kts 198°
2026-05-08 05:31 33.02094 130.74231 23580 ft 408 kts 197°
2026-05-08 05:32 32.99253 130.73867 24211 ft 412 kts 197°
2026-05-08 05:32 32.96382 130.73524 24817 ft 416 kts 197°
2026-05-08 05:32 32.93490 130.73181 25389 ft 420 kts 197°
2026-05-08 05:32 32.90566 130.72831 25931 ft 424 kts 197°
2026-05-08 05:33 32.87617 130.72470 26425 ft 428 kts 196°
2026-05-08 05:33 32.84635 130.72100 26901 ft 433 kts 196°
2026-05-08 05:33 32.82645 130.71854 27241 ft 436 kts 196°
2026-05-08 05:33 32.78587 130.71354 27900 ft 440 kts 196°
2026-05-08 05:34 32.76559 130.71104 28226 ft 442 kts 196°
2026-05-08 05:34 32.72432 130.70599 28856 ft 447 kts 196°
2026-05-08 05:34 32.69334 130.70220 29221 ft 450 kts 195°
2026-05-08 05:34 32.66245 130.69837 29566 ft 454 kts 195°
2026-05-08 05:35 32.64108 130.69576 29786 ft 457 kts 195°
2026-05-08 05:35 32.60939 130.69192 30118 ft 460 kts 195°
2026-05-08 05:35 32.57781 130.68810 30394 ft 462 kts 195°
2026-05-08 05:35 32.54576 130.68421 30710 ft 464 kts 195°
2026-05-08 05:36 32.51367 130.68036 31137 ft 462 kts 195°
2026-05-08 05:36 32.48184 130.67644 31533 ft 459 kts 195°
2026-05-08 05:36 32.45002 130.67248 31775 ft 461 kts 195°
2026-05-08 05:36 32.41805 130.66865 32147 ft 460 kts 194°
2026-05-08 05:37 32.38624 130.66482 32607 ft 458 kts 194°
2026-05-08 05:37 32.35456 130.66101 32971 ft 457 kts 195°
2026-05-08 05:37 32.32288 130.65714 33303 ft 457 kts 194°
2026-05-08 05:37 32.29139 130.65333 33778 ft 454 kts 194°
2026-05-08 05:38 32.25994 130.64952 33989 ft 454 kts 194°
2026-05-08 05:38 32.19724 130.64197 33983 ft 452 kts 194°
2026-05-08 05:39 32.13466 130.63446 33989 ft 452 kts 194°
2026-05-08 05:39 32.07239 130.62702 33981 ft 452 kts 194°
2026-05-08 05:40 32.00975 130.61955 33981 ft 452 kts 194°
2026-05-08 05:40 31.94712 130.61208 33968 ft 451 kts 194°
2026-05-08 05:41 31.88453 130.60479 33961 ft 450 kts 194°
2026-05-08 05:41 31.82212 130.59758 33974 ft 450 kts 194°
2026-05-08 05:42 31.75980 130.59032 33975 ft 450 kts 194°
2026-05-08 05:42 31.72938 130.58425 33970 ft 435 kts 205°
2026-05-08 05:42 31.70222 130.56982 33945 ft 424 kts 217°
2026-05-08 05:43 31.65799 130.52612 33972 ft 411 kts 235°
2026-05-08 05:43 31.62350 130.47255 34023 ft 413 kts 236°
2026-05-08 05:44 31.58873 130.41889 34008 ft 418 kts 235°
2026-05-08 05:44 31.55309 130.36464 34010 ft 421 kts 235°
2026-05-08 05:45 31.51720 130.31035 34002 ft 421 kts 235°
2026-05-08 05:45 31.48135 130.25621 34007 ft 420 kts 235°
2026-05-08 05:46 31.44553 130.20218 34016 ft 420 kts 235°
2026-05-08 05:46 31.40969 130.14817 33999 ft 418 kts 235°
2026-05-08 05:47 31.37395 130.09435 34019 ft 419 kts 235°
2026-05-08 05:47 31.33845 130.04024 34020 ft 419 kts 235°
2026-05-08 05:48 31.30310 129.98642 34030 ft 421 kts 235°
2026-05-08 05:48 31.26729 129.93230 34015 ft 420 kts 234°
2026-05-08 05:49 31.23131 129.87847 34022 ft 420 kts 234°
2026-05-08 05:49 31.19530 129.82468 34024 ft 420 kts 234°
2026-05-08 05:50 31.15924 129.77081 34029 ft 421 kts 234°
2026-05-08 05:50 31.12312 129.71689 34021 ft 421 kts 234°
2026-05-08 05:51 31.08700 129.66307 34033 ft 421 kts 234°
2026-05-08 05:51 31.05087 129.60928 34032 ft 421 kts 234°
2026-05-08 05:52 31.01473 129.55555 34012 ft 422 kts 234°
2026-05-08 05:52 30.97855 129.50186 34033 ft 420 kts 234°
2026-05-08 05:53 30.94243 129.44831 34042 ft 420 kts 234°
2026-05-08 05:53 30.90653 129.39516 34038 ft 420 kts 234°
2026-05-08 05:54 30.87067 129.34214 34030 ft 419 kts 234°
2026-05-08 05:54 30.83457 129.28883 34042 ft 419 kts 234°
2026-05-08 05:55 30.79839 129.23547 34041 ft 419 kts 234°
2026-05-08 05:55 30.76233 129.18216 34043 ft 419 kts 234°
2026-05-08 05:56 30.72691 129.12829 34012 ft 419 kts 235°
2026-05-08 05:56 30.69168 129.07443 34042 ft 419 kts 235°
2026-05-08 05:57 30.65634 129.02060 34048 ft 419 kts 234°
2026-05-08 05:57 30.62092 128.96683 34053 ft 419 kts 234°
2026-05-08 05:58 30.58565 128.91341 34025 ft 419 kts 234°
2026-05-08 05:58 30.54989 128.85931 34055 ft 421 kts 234°
2026-05-08 05:59 30.51438 128.80565 34064 ft 423 kts 234°
2026-05-08 05:59 30.47844 128.75144 34069 ft 424 kts 234°
2026-05-08 06:00 30.44248 128.69726 34032 ft 424 kts 234°
2026-05-08 06:00 30.40657 128.64323 34074 ft 424 kts 235°
2026-05-08 06:01 30.37048 128.58900 34064 ft 426 kts 235°
2026-05-08 06:01 30.33425 128.53463 34064 ft 427 kts 234°
2026-05-08 06:02 30.29791 128.48018 34031 ft 427 kts 234°
2026-05-08 06:02 30.26159 128.42583 34057 ft 426 kts 234°
2026-05-08 06:03 30.22531 128.37162 34064 ft 426 kts 234°
2026-05-08 06:03 30.18901 128.31743 34063 ft 426 kts 234°
2026-05-08 06:04 30.15267 128.26328 34065 ft 426 kts 234°
2026-05-08 06:04 30.11655 128.20951 34066 ft 426 kts 234°
2026-05-08 06:05 30.08014 128.15540 34073 ft 427 kts 234°
2026-05-08 06:05 30.04364 128.10121 34069 ft 428 kts 234°
2026-05-08 06:06 30.00706 128.04697 34036 ft 429 kts 234°
2026-05-08 06:06 29.97041 127.99271 34063 ft 428 kts 234°
2026-05-08 06:07 29.93378 127.93854 34088 ft 429 kts 235°
2026-05-08 06:07 29.89701 127.88423 34077 ft 430 kts 235°
2026-05-08 06:08 29.86010 127.82986 34079 ft 430 kts 234°
2026-05-08 06:08 29.82138 127.77714 34060 ft 431 kts 232°
2026-05-08 06:09 29.78215 127.72545 34071 ft 431 kts 232°
2026-05-08 06:09 29.74279 127.67312 34091 ft 433 kts 233°
2026-05-08 06:10 29.70349 127.62055 34083 ft 434 kts 233°
2026-05-08 06:10 29.66419 127.56800 34074 ft 433 kts 232°
2026-05-08 06:11 29.62488 127.51552 34075 ft 433 kts 232°
2026-05-08 06:11 29.58556 127.46311 34090 ft 433 kts 233°
2026-05-08 06:12 29.54766 127.40947 34085 ft 432 kts 235°
2026-05-08 06:12 29.51060 127.35498 34071 ft 433 kts 235°
2026-05-08 06:13 29.47338 127.30061 34077 ft 433 kts 235°
2026-05-08 06:13 29.43592 127.24635 34074 ft 434 kts 235°
2026-05-08 06:14 29.39860 127.19252 34082 ft 434 kts 235°
2026-05-08 06:14 29.36101 127.13835 34070 ft 434 kts 235°
2026-05-08 06:15 29.32337 127.08418 34082 ft 435 kts 235°
2026-05-08 06:15 29.28562 127.02994 34084 ft 435 kts 235°
2026-05-08 06:16 29.24780 126.97565 34095 ft 435 kts 236°
2026-05-08 06:16 29.21001 126.92148 34071 ft 435 kts 235°
2026-05-08 06:17 29.15350 126.84059 34083 ft 436 kts 235°
2026-05-08 06:17 29.11555 126.78637 34084 ft 436 kts 235°
2026-05-08 06:18 29.07758 126.73220 34098 ft 436 kts 236°
2026-05-08 06:18 29.03971 126.67822 34075 ft 436 kts 236°
2026-05-08 06:19 29.00198 126.62448 34084 ft 437 kts 236°
2026-05-08 06:19 28.96381 126.57032 34085 ft 438 kts 235°
2026-05-08 06:20 28.92459 126.51702 34085 ft 439 kts 234°
2026-05-08 06:20 28.89166 126.47299 34070 ft 438 kts 234°
2026-05-08 06:21 28.85216 126.41997 34082 ft 438 kts 234°
2026-05-08 06:21 28.81283 126.36704 34081 ft 437 kts 234°
2026-05-08 06:22 28.77347 126.31409 34081 ft 437 kts 234°
2026-05-08 06:22 28.73415 126.26126 34044 ft 437 kts 234°
2026-05-08 06:23 28.69469 126.20831 34079 ft 439 kts 234°
2026-05-08 06:23 28.65511 126.15526 34080 ft 440 kts 234°
2026-05-08 06:24 28.61579 126.10193 34079 ft 440 kts 236°
2026-05-08 06:24 28.57746 126.04773 34077 ft 439 kts 236°
2026-05-08 06:25 28.53925 125.99347 34087 ft 439 kts 236°
2026-05-08 06:25 28.50093 125.93936 34078 ft 439 kts 236°
2026-05-08 06:26 28.46262 125.88548 34075 ft 439 kts 236°
2026-05-08 06:26 28.42445 125.83192 34079 ft 438 kts 236°
2026-05-08 06:27 28.38603 125.77808 34069 ft 439 kts 236°
2026-05-08 06:27 28.34758 125.72425 34088 ft 439 kts 236°
2026-05-08 06:28 28.30905 125.67039 34076 ft 439 kts 236°
2026-05-08 06:28 28.27048 125.61653 34080 ft 439 kts 236°
2026-05-08 06:29 28.23191 125.56274 34075 ft 439 kts 236°
2026-05-08 06:29 28.19332 125.50899 34064 ft 440 kts 236°
2026-05-08 06:30 28.15463 125.45517 34078 ft 440 kts 236°
2026-05-08 06:30 28.11594 125.40142 34076 ft 440 kts 236°
2026-05-08 06:31 28.07720 125.34767 34077 ft 440 kts 236°
2026-05-08 06:31 28.03869 125.29430 34085 ft 440 kts 235°
2026-05-08 06:32 27.99989 125.24060 34102 ft 441 kts 236°
2026-05-08 06:32 27.96094 125.18676 34072 ft 442 kts 236°
2026-05-08 06:33 27.92194 125.13291 34076 ft 442 kts 236°
2026-05-08 06:33 27.88287 125.07905 34055 ft 442 kts 236°
2026-05-08 06:34 27.84385 125.02530 34077 ft 443 kts 236°
2026-05-08 06:34 27.80465 124.97139 34084 ft 444 kts 236°
2026-05-08 06:35 27.76543 124.91751 34077 ft 444 kts 236°
2026-05-08 06:35 27.72617 124.86364 34065 ft 444 kts 236°
2026-05-08 06:36 27.68693 124.80987 34065 ft 444 kts 235°
2026-05-08 06:36 27.64765 124.75609 34069 ft 444 kts 235°
2026-05-08 06:37 27.60828 124.70226 34085 ft 445 kts 236°
2026-05-08 06:37 27.56918 124.64873 34076 ft 445 kts 236°
2026-05-08 06:38 27.52986 124.59490 34047 ft 445 kts 235°
2026-05-08 06:38 27.49053 124.54112 34066 ft 445 kts 235°
2026-05-08 06:39 27.45114 124.48734 34073 ft 446 kts 235°
2026-05-08 06:39 27.41164 124.43349 34077 ft 446 kts 235°
2026-05-08 06:40 27.37208 124.37961 34077 ft 446 kts 235°
2026-05-08 06:40 27.33254 124.32583 34056 ft 446 kts 235°
2026-05-08 06:41 27.29298 124.27208 34073 ft 447 kts 235°
2026-05-08 06:41 27.25328 124.21821 34071 ft 447 kts 235°
2026-05-08 06:42 27.21386 124.16479 34074 ft 447 kts 235°
2026-05-08 06:42 27.17418 124.11107 34067 ft 447 kts 235°
2026-05-08 06:43 27.13446 124.05735 34058 ft 448 kts 235°
2026-05-08 06:43 27.09454 124.00345 34067 ft 449 kts 235°
2026-05-08 06:44 27.05426 123.94966 34077 ft 450 kts 234°
2026-05-08 06:44 27.01382 123.89615 34065 ft 449 kts 234°
2026-05-08 06:45 26.97373 123.84310 34047 ft 448 kts 234°
2026-05-08 06:45 26.93340 123.78970 34074 ft 449 kts 234°
2026-05-08 06:46 26.89291 123.73612 34068 ft 451 kts 234°
2026-05-08 06:46 26.85227 123.68243 34081 ft 451 kts 234°
2026-05-08 06:47 26.81164 123.62882 34054 ft 451 kts 234°
2026-05-08 06:47 26.77100 123.57527 34050 ft 450 kts 234°
2026-05-08 06:48 26.73041 123.52183 34043 ft 450 kts 234°
2026-05-08 06:48 26.69017 123.46890 34069 ft 450 kts 234°
2026-05-08 06:49 26.64962 123.41565 34054 ft 450 kts 234°
2026-05-08 06:49 26.60903 123.36237 34036 ft 450 kts 234°
2026-05-08 06:50 26.56844 123.30909 34058 ft 451 kts 234°
2026-05-08 06:50 26.52768 123.25566 34055 ft 452 kts 234°
2026-05-08 06:51 26.48683 123.20218 34055 ft 452 kts 234°
2026-05-08 06:51 26.44600 123.14878 34057 ft 452 kts 234°
2026-05-08 06:52 26.40537 123.09572 34034 ft 452 kts 234°
2026-05-08 06:52 26.36452 123.04241 34047 ft 452 kts 234°
2026-05-08 06:53 26.32359 122.98907 34048 ft 453 kts 234°
2026-05-08 06:53 26.28249 122.93581 34052 ft 453 kts 234°
2026-05-08 06:54 26.24127 122.88247 34053 ft 454 kts 234°
2026-05-08 06:54 26.20010 122.82924 34038 ft 454 kts 234°
2026-05-08 06:55 26.15891 122.77602 34039 ft 453 kts 234°
2026-05-08 06:55 26.11802 122.72325 34042 ft 453 kts 234°
2026-05-08 06:56 26.07662 122.66987 34046 ft 453 kts 234°
2026-05-08 06:56 26.03569 122.61716 34032 ft 453 kts 234°
2026-05-08 06:57 25.99435 122.56398 34031 ft 455 kts 233°
2026-05-08 06:57 25.95281 122.51061 34045 ft 456 kts 233°
2026-05-08 06:58 25.91129 122.45722 34048 ft 459 kts 233°
2026-05-08 06:58 25.86952 122.40347 34009 ft 459 kts 233°
2026-05-08 06:59 25.82814 122.35014 34012 ft 454 kts 233°
2026-05-08 06:59 25.78692 122.29712 34031 ft 454 kts 233°
2026-05-08 07:00 25.74554 122.24397 34036 ft 456 kts 233°
2026-05-08 07:00 25.70396 122.19064 34035 ft 458 kts 233°
2026-05-08 07:01 25.66224 122.13718 34044 ft 459 kts 233°
2026-05-08 07:01 25.62057 122.08386 34028 ft 460 kts 233°
2026-05-08 07:02 25.57853 122.03030 34037 ft 461 kts 233°
2026-05-08 07:02 25.53631 121.97665 34028 ft 463 kts 233°
2026-05-08 07:03 25.49403 121.92296 34030 ft 462 kts 233°
2026-05-08 07:03 25.45183 121.86940 34029 ft 461 kts 233°
2026-05-08 07:04 25.40968 121.81595 34013 ft 461 kts 233°
2026-05-08 07:04 25.36741 121.76242 34021 ft 462 kts 233°
2026-05-08 07:05 25.32505 121.70883 34019 ft 462 kts 233°
2026-05-08 07:05 25.28268 121.65529 34008 ft 463 kts 233°
2026-05-08 07:06 25.24746 121.61084 33996 ft 463 kts 233°
2026-05-08 07:06 25.19797 121.54843 33996 ft 461 kts 233°
2026-05-08 07:07 25.15560 121.49474 33988 ft 464 kts 234°
2026-05-08 07:07 25.11401 121.44079 33990 ft 464 kts 234°
2026-05-08 07:08 25.07228 121.38655 34002 ft 463 kts 234°
2026-05-08 07:08 25.03049 121.33245 33999 ft 463 kts 234°
2026-05-08 07:09 24.99564 121.28745 33990 ft 464 kts 234°
2026-05-08 07:09 24.95367 121.23333 33999 ft 465 kts 234°
2026-05-08 07:10 24.91160 121.17913 33996 ft 465 kts 234°
2026-05-08 07:10 24.86954 121.12499 33993 ft 465 kts 234°
2026-05-08 07:11 24.82746 121.07091 33993 ft 464 kts 234°
2026-05-08 07:11 24.78550 121.01685 33992 ft 464 kts 234°
2026-05-08 07:12 24.74358 120.96284 34010 ft 464 kts 234°
2026-05-08 07:12 24.70165 120.90888 33987 ft 464 kts 234°
2026-05-08 07:13 24.65976 120.85503 33991 ft 463 kts 234°
2026-05-08 07:13 24.61791 120.80129 33978 ft 462 kts 234°
2026-05-08 07:14 24.57605 120.74759 33985 ft 463 kts 234°